owner,sensor,date,latitude,longitude,sea_surface_height_above_sea_level,qcFlag 
COMPS,ioos:station:USF.COMPS:SHP:1,2015-04-01T00:00:00Z,30.0600,-84.2910,-0.283,1111122 
COMPS,ioos:station:USF.COMPS:SHP:1,2015-04-01T00:06:00Z,30.0600,-84.2910,-0.278,1111122 
COMPS,ioos:station:USF.COMPS:SHP:1,2015-04-01T00:12:00Z,30.0600,-84.2910,-0.272,1111122 
COMPS,ioos:station:USF.COMPS:SHP:1,2015-04-01T00:18:00Z,30.0600,-84.2910,-0.266,1111122 
COMPS,ioos:station:USF.COMPS:SHP:1,2015-04-01T00:24:00Z,30.0600,-84.2910,-0.262,1111122 
COMPS,ioos:station:USF.COMPS:SHP:1,2015-04-01T00:30:00Z,30.0600,-84.2910,-0.258,1111122 
COMPS,ioos:station:USF.COMPS:SHP:1,2015-04-01T00:36:00Z,30.0600,-84.2910,-0.25,1111122 
COMPS,ioos:station:USF.COMPS:SHP:1,2015-04-01T00:42:00Z,30.0600,-84.2910,-0.243,1111122 
COMPS,ioos:station:USF.COMPS:SHP:1,2015-04-01T00:48:00Z,30.0600,-84.2910,-0.236,1111122 
COMPS,ioos:station:USF.COMPS:SHP:1,2015-04-01T00:54:00Z,30.0600,-84.2910,-0.23,1111122 
COMPS,ioos:station:USF.COMPS:SHP:1,2015-04-01T01:00:00Z,30.0600,-84.2910,-0.227,1111122 
COMPS,ioos:station:USF.COMPS:SHP:1,2015-04-01T01:06:00Z,30.0600,-84.2910,-0.217,1111122 
COMPS,ioos:station:USF.COMPS:SHP:1,2015-04-01T01:12:00Z,30.0600,-84.2910,-0.202,1111122 
COMPS,ioos:station:USF.COMPS:SHP:1,2015-04-01T01:18:00Z,30.0600,-84.2910,-0.19,1111122 
COMPS,ioos:station:USF.COMPS:SHP:1,2015-04-01T01:24:00Z,30.0600,-84.2910,-0.172,1111122 
COMPS,ioos:station:USF.COMPS:SHP:1,2015-04-01T01:30:00Z,30.0600,-84.2910,-0.151,1111122 
COMPS,ioos:station:USF.COMPS:SHP:1,2015-04-01T01:36:00Z,30.0600,-84.2910,-0.137,1111122 
COMPS,ioos:station:USF.COMPS:SHP:1,2015-04-01T01:42:00Z,30.0600,-84.2910,-0.126,1111122 
COMPS,ioos:station:USF.COMPS:SHP:1,2015-04-01T01:48:00Z,30.0600,-84.2910,-0.111,1111122 
COMPS,ioos:station:USF.COMPS:SHP:1,2015-04-01T01:54:00Z,30.0600,-84.2910,-0.098,1111122 
COMPS,ioos:station:USF.COMPS:SHP:1,2015-04-01T02:00:00Z,30.0600,-84.2910,-0.086,1111122 
COMPS,ioos:station:USF.COMPS:SHP:1,2015-04-01T02:06:00Z,30.0600,-84.2910,-0.074,1111122 
COMPS,ioos:station:USF.COMPS:SHP:1,2015-04-01T02:12:00Z,30.0600,-84.2910,-0.059,1111122 
COMPS,ioos:station:USF.COMPS:SHP:1,2015-04-01T02:18:00Z,30.0600,-84.2910,-0.042,1111122 
COMPS,ioos:station:USF.COMPS:SHP:1,2015-04-01T02:24:00Z,30.0600,-84.2910,-0.022,1111122 
COMPS,ioos:station:USF.COMPS:SHP:1,2015-04-01T02:30:00Z,30.0600,-84.2910,-0.002,1111122 
COMPS,ioos:station:USF.COMPS:SHP:1,2015-04-01T02:36:00Z,30.0600,-84.2910,0.014,1111122 
COMPS,ioos:station:USF.COMPS:SHP:1,2015-04-01T02:42:00Z,30.0600,-84.2910,0.034,1111122 
COMPS,ioos:station:USF.COMPS:SHP:1,2015-04-01T02:48:00Z,30.0600,-84.2910,0.052,1111122 
COMPS,ioos:station:USF.COMPS:SHP:1,2015-04-01T02:54:00Z,30.0600,-84.2910,0.07,1111122 
COMPS,ioos:station:USF.COMPS:SHP:1,2015-04-01T03:00:00Z,30.0600,-84.2910,0.088,1111122 
COMPS,ioos:station:USF.COMPS:SHP:1,2015-04-01T03:06:00Z,30.0600,-84.2910,0.104,1111122 
COMPS,ioos:station:USF.COMPS:SHP:1,2015-04-01T03:12:00Z,30.0600,-84.2910,0.121,1111122 
COMPS,ioos:station:USF.COMPS:SHP:1,2015-04-01T03:18:00Z,30.0600,-84.2910,0.139,1111122 
COMPS,ioos:station:USF.COMPS:SHP:1,2015-04-01T03:24:00Z,30.0600,-84.2910,0.158,1111122 
COMPS,ioos:station:USF.COMPS:SHP:1,2015-04-01T03:30:00Z,30.0600,-84.2910,0.172,1111122 
COMPS,ioos:station:USF.COMPS:SHP:1,2015-04-01T03:36:00Z,30.0600,-84.2910,0.187,1111122 
COMPS,ioos:station:USF.COMPS:SHP:1,2015-04-01T03:42:00Z,30.0600,-84.2910,0.202,1111122 
COMPS,ioos:station:USF.COMPS:SHP:1,2015-04-01T03:48:00Z,30.0600,-84.2910,0.22,1111122 
COMPS,ioos:station:USF.COMPS:SHP:1,2015-04-01T03:54:00Z,30.0600,-84.2910,0.24,1111122 
COMPS,ioos:station:USF.COMPS:SHP:1,2015-04-01T04:00:00Z,30.0600,-84.2910,0.256,1111122 
COMPS,ioos:station:USF.COMPS:SHP:1,2015-04-01T04:06:00Z,30.0600,-84.2910,0.269,1111122 
COMPS,ioos:station:USF.COMPS:SHP:1,2015-04-01T04:12:00Z,30.0600,-84.2910,0.28,1111122 
COMPS,ioos:station:USF.COMPS:SHP:1,2015-04-01T04:18:00Z,30.0600,-84.2910,0.29,1111122 
COMPS,ioos:station:USF.COMPS:SHP:1,2015-04-01T04:24:00Z,30.0600,-84.2910,0.301,1111122 
COMPS,ioos:station:USF.COMPS:SHP:1,2015-04-01T04:30:00Z,30.0600,-84.2910,0.314,1111122 
COMPS,ioos:station:USF.COMPS:SHP:1,2015-04-01T04:36:00Z,30.0600,-84.2910,0.325,1111122 
COMPS,ioos:station:USF.COMPS:SHP:1,2015-04-01T04:42:00Z,30.0600,-84.2910,0.335,1111122 
COMPS,ioos:station:USF.COMPS:SHP:1,2015-04-01T04:48:00Z,30.0600,-84.2910,0.344,1111122 
COMPS,ioos:station:USF.COMPS:SHP:1,2015-04-01T04:54:00Z,30.0600,-84.2910,0.352,1111122 
COMPS,ioos:station:USF.COMPS:SHP:1,2015-04-01T05:00:00Z,30.0600,-84.2910,0.363,1111122 
COMPS,ioos:station:USF.COMPS:SHP:1,2015-04-01T05:06:00Z,30.0600,-84.2910,0.371,1111122 
COMPS,ioos:station:USF.COMPS:SHP:1,2015-04-01T05:12:00Z,30.0600,-84.2910,0.374,1111122 
COMPS,ioos:station:USF.COMPS:SHP:1,2015-04-01T05:18:00Z,30.0600,-84.2910,0.379,1111122 
COMPS,ioos:station:USF.COMPS:SHP:1,2015-04-01T05:24:00Z,30.0600,-84.2910,0.383,1111122 
COMPS,ioos:station:USF.COMPS:SHP:1,2015-04-01T05:30:00Z,30.0600,-84.2910,0.386,1111122 
COMPS,ioos:station:USF.COMPS:SHP:1,2015-04-01T05:36:00Z,30.0600,-84.2910,0.388,1111122 
COMPS,ioos:station:USF.COMPS:SHP:1,2015-04-01T05:42:00Z,30.0600,-84.2910,0.39,1111122 
COMPS,ioos:station:USF.COMPS:SHP:1,2015-04-01T05:48:00Z,30.0600,-84.2910,0.39,1111122 
COMPS,ioos:station:USF.COMPS:SHP:1,2015-04-01T05:54:00Z,30.0600,-84.2910,0.389,1111122 
COMPS,ioos:station:USF.COMPS:SHP:1,2015-04-01T06:00:00Z,30.0600,-84.2910,0.389,1111122 
COMPS,ioos:station:USF.COMPS:SHP:1,2015-04-01T06:06:00Z,30.0600,-84.2910,0.388,1111122 
COMPS,ioos:station:USF.COMPS:SHP:1,2015-04-01T06:12:00Z,30.0600,-84.2910,0.383,1111122 
COMPS,ioos:station:USF.COMPS:SHP:1,2015-04-01T06:18:00Z,30.0600,-84.2910,0.38,1111122 
COMPS,ioos:station:USF.COMPS:SHP:1,2015-04-01T06:24:00Z,30.0600,-84.2910,0.372,1111122 
COMPS,ioos:station:USF.COMPS:SHP:1,2015-04-01T06:30:00Z,30.0600,-84.2910,0.368,1111122 
COMPS,ioos:station:USF.COMPS:SHP:1,2015-04-01T06:36:00Z,30.0600,-84.2910,0.361,1111122 
COMPS,ioos:station:USF.COMPS:SHP:1,2015-04-01T06:42:00Z,30.0600,-84.2910,0.352,1111122 
COMPS,ioos:station:USF.COMPS:SHP:1,2015-04-01T06:48:00Z,30.0600,-84.2910,0.343,1111122 
COMPS,ioos:station:USF.COMPS:SHP:1,2015-04-01T06:54:00Z,30.0600,-84.2910,0.334,1111122 
COMPS,ioos:station:USF.COMPS:SHP:1,2015-04-01T07:00:00Z,30.0600,-84.2910,0.318,1111122 
COMPS,ioos:station:USF.COMPS:SHP:1,2015-04-01T07:06:00Z,30.0600,-84.2910,0.304,1111122 
COMPS,ioos:station:USF.COMPS:SHP:1,2015-04-01T07:12:00Z,30.0600,-84.2910,0.293,1111122 
COMPS,ioos:station:USF.COMPS:SHP:1,2015-04-01T07:18:00Z,30.0600,-84.2910,0.283,1111122 
COMPS,ioos:station:USF.COMPS:SHP:1,2015-04-01T07:24:00Z,30.0600,-84.2910,0.269,1111122 
COMPS,ioos:station:USF.COMPS:SHP:1,2015-04-01T07:30:00Z,30.0600,-84.2910,0.253,1111122 
COMPS,ioos:station:USF.COMPS:SHP:1,2015-04-01T07:36:00Z,30.0600,-84.2910,0.236,1111122 
COMPS,ioos:station:USF.COMPS:SHP:1,2015-04-01T07:42:00Z,30.0600,-84.2910,0.217,1111122 
COMPS,ioos:station:USF.COMPS:SHP:1,2015-04-01T07:48:00Z,30.0600,-84.2910,0.196,1111122 
COMPS,ioos:station:USF.COMPS:SHP:1,2015-04-01T07:54:00Z,30.0600,-84.2910,0.176,1111122 
COMPS,ioos:station:USF.COMPS:SHP:1,2015-04-01T08:00:00Z,30.0600,-84.2910,0.158,1111122 
COMPS,ioos:station:USF.COMPS:SHP:1,2015-04-01T08:06:00Z,30.0600,-84.2910,0.135,1111122 
COMPS,ioos:station:USF.COMPS:SHP:1,2015-04-01T08:12:00Z,30.0600,-84.2910,0.113,1111122 
COMPS,ioos:station:USF.COMPS:SHP:1,2015-04-01T08:18:00Z,30.0600,-84.2910,0.091,1111122 
COMPS,ioos:station:USF.COMPS:SHP:1,2015-04-01T08:24:00Z,30.0600,-84.2910,0.069,1111122 
COMPS,ioos:station:USF.COMPS:SHP:1,2015-04-01T08:30:00Z,30.0600,-84.2910,0.045,1111122 
COMPS,ioos:station:USF.COMPS:SHP:1,2015-04-01T08:36:00Z,30.0600,-84.2910,0.025,1111122 
COMPS,ioos:station:USF.COMPS:SHP:1,2015-04-01T08:42:00Z,30.0600,-84.2910,0.007,1111122 
COMPS,ioos:station:USF.COMPS:SHP:1,2015-04-01T08:48:00Z,30.0600,-84.2910,-0.016,1111122 
COMPS,ioos:station:USF.COMPS:SHP:1,2015-04-01T08:54:00Z,30.0600,-84.2910,-0.038,1111122 
COMPS,ioos:station:USF.COMPS:SHP:1,2015-04-01T09:00:00Z,30.0600,-84.2910,-0.058,1111122 
COMPS,ioos:station:USF.COMPS:SHP:1,2015-04-01T09:06:00Z,30.0600,-84.2910,-0.074,1111122 
COMPS,ioos:station:USF.COMPS:SHP:1,2015-04-01T09:12:00Z,30.0600,-84.2910,-0.093,1111122 
COMPS,ioos:station:USF.COMPS:SHP:1,2015-04-01T09:18:00Z,30.0600,-84.2910,-0.115,1111122 
COMPS,ioos:station:USF.COMPS:SHP:1,2015-04-01T09:24:00Z,30.0600,-84.2910,-0.136,1111122 
COMPS,ioos:station:USF.COMPS:SHP:1,2015-04-01T09:30:00Z,30.0600,-84.2910,-0.156,1111122 
COMPS,ioos:station:USF.COMPS:SHP:1,2015-04-01T09:36:00Z,30.0600,-84.2910,-0.174,1111122 
COMPS,ioos:station:USF.COMPS:SHP:1,2015-04-01T09:42:00Z,30.0600,-84.2910,-0.192,1111122 
COMPS,ioos:station:USF.COMPS:SHP:1,2015-04-01T09:48:00Z,30.0600,-84.2910,-0.211,1111122 
COMPS,ioos:station:USF.COMPS:SHP:1,2015-04-01T09:54:00Z,30.0600,-84.2910,-0.229,1111122 
COMPS,ioos:station:USF.COMPS:SHP:1,2015-04-01T10:00:00Z,30.0600,-84.2910,-0.245,1111122 
COMPS,ioos:station:USF.COMPS:SHP:1,2015-04-01T10:06:00Z,30.0600,-84.2910,-0.261,1111122 
COMPS,ioos:station:USF.COMPS:SHP:1,2015-04-01T10:12:00Z,30.0600,-84.2910,-0.278,1111122 
COMPS,ioos:station:USF.COMPS:SHP:1,2015-04-01T10:18:00Z,30.0600,-84.2910,-0.294,1111122 
COMPS,ioos:station:USF.COMPS:SHP:1,2015-04-01T10:24:00Z,30.0600,-84.2910,-0.312,1111122 
COMPS,ioos:station:USF.COMPS:SHP:1,2015-04-01T10:30:00Z,30.0600,-84.2910,-0.328,1111122 
COMPS,ioos:station:USF.COMPS:SHP:1,2015-04-01T10:36:00Z,30.0600,-84.2910,-0.34,1111122 
COMPS,ioos:station:USF.COMPS:SHP:1,2015-04-01T10:42:00Z,30.0600,-84.2910,-0.35,1111122 
COMPS,ioos:station:USF.COMPS:SHP:1,2015-04-01T10:48:00Z,30.0600,-84.2910,-0.359,1111122 
COMPS,ioos:station:USF.COMPS:SHP:1,2015-04-01T10:54:00Z,30.0600,-84.2910,-0.37,1111122 
COMPS,ioos:station:USF.COMPS:SHP:1,2015-04-01T11:00:00Z,30.0600,-84.2910,-0.38,1111122 
COMPS,ioos:station:USF.COMPS:SHP:1,2015-04-01T11:06:00Z,30.0600,-84.2910,-0.389,1111122 
COMPS,ioos:station:USF.COMPS:SHP:1,2015-04-01T11:12:00Z,30.0600,-84.2910,-0.397,1111122 
COMPS,ioos:station:USF.COMPS:SHP:1,2015-04-01T11:18:00Z,30.0600,-84.2910,-0.404,1111122 
COMPS,ioos:station:USF.COMPS:SHP:1,2015-04-01T11:24:00Z,30.0600,-84.2910,-0.411,1111122 
COMPS,ioos:station:USF.COMPS:SHP:1,2015-04-01T11:30:00Z,30.0600,-84.2910,-0.416,1111122 
COMPS,ioos:station:USF.COMPS:SHP:1,2015-04-01T11:36:00Z,30.0600,-84.2910,-0.418,1111122 
COMPS,ioos:station:USF.COMPS:SHP:1,2015-04-01T11:42:00Z,30.0600,-84.2910,-0.419,1111122 
COMPS,ioos:station:USF.COMPS:SHP:1,2015-04-01T11:48:00Z,30.0600,-84.2910,-0.42,1111122 
COMPS,ioos:station:USF.COMPS:SHP:1,2015-04-01T11:54:00Z,30.0600,-84.2910,-0.419,1111122 
COMPS,ioos:station:USF.COMPS:SHP:1,2015-04-01T12:00:00Z,30.0600,-84.2910,-0.421,1111122 
COMPS,ioos:station:USF.COMPS:SHP:1,2015-04-01T12:06:00Z,30.0600,-84.2910,-0.423,1111122 
COMPS,ioos:station:USF.COMPS:SHP:1,2015-04-01T12:12:00Z,30.0600,-84.2910,-0.425,1111122 
COMPS,ioos:station:USF.COMPS:SHP:1,2015-04-01T12:18:00Z,30.0600,-84.2910,-0.422,1111122 
COMPS,ioos:station:USF.COMPS:SHP:1,2015-04-01T12:24:00Z,30.0600,-84.2910,-0.417,1111122 
COMPS,ioos:station:USF.COMPS:SHP:1,2015-04-01T12:30:00Z,30.0600,-84.2910,-0.411,1111122 
COMPS,ioos:station:USF.COMPS:SHP:1,2015-04-01T12:36:00Z,30.0600,-84.2910,-0.407,1111122 
COMPS,ioos:station:USF.COMPS:SHP:1,2015-04-01T12:42:00Z,30.0600,-84.2910,-0.404,1111122 
COMPS,ioos:station:USF.COMPS:SHP:1,2015-04-01T12:48:00Z,30.0600,-84.2910,-0.4,1111122 
COMPS,ioos:station:USF.COMPS:SHP:1,2015-04-01T12:54:00Z,30.0600,-84.2910,-0.394,1111122 
COMPS,ioos:station:USF.COMPS:SHP:1,2015-04-01T13:00:00Z,30.0600,-84.2910,-0.388,1111122 
COMPS,ioos:station:USF.COMPS:SHP:1,2015-04-01T13:06:00Z,30.0600,-84.2910,-0.381,1111122 
COMPS,ioos:station:USF.COMPS:SHP:1,2015-04-01T13:12:00Z,30.0600,-84.2910,-0.371,1111122 
COMPS,ioos:station:USF.COMPS:SHP:1,2015-04-01T13:18:00Z,30.0600,-84.2910,-0.359,1111122 
COMPS,ioos:station:USF.COMPS:SHP:1,2015-04-01T13:24:00Z,30.0600,-84.2910,-0.348,1111122 
COMPS,ioos:station:USF.COMPS:SHP:1,2015-04-01T13:30:00Z,30.0600,-84.2910,-0.335,1111122 
COMPS,ioos:station:USF.COMPS:SHP:1,2015-04-01T13:36:00Z,30.0600,-84.2910,-0.321,1111122 
COMPS,ioos:station:USF.COMPS:SHP:1,2015-04-01T13:42:00Z,30.0600,-84.2910,-0.305,1111122 
COMPS,ioos:station:USF.COMPS:SHP:1,2015-04-01T13:48:00Z,30.0600,-84.2910,-0.288,1111122 
COMPS,ioos:station:USF.COMPS:SHP:1,2015-04-01T13:54:00Z,30.0600,-84.2910,-0.271,1111122 
COMPS,ioos:station:USF.COMPS:SHP:1,2015-04-01T14:00:00Z,30.0600,-84.2910,-0.254,1111122 
COMPS,ioos:station:USF.COMPS:SHP:1,2015-04-01T14:06:00Z,30.0600,-84.2910,-0.235,1111122 
COMPS,ioos:station:USF.COMPS:SHP:1,2015-04-01T14:12:00Z,30.0600,-84.2910,-0.213,1111122 
COMPS,ioos:station:USF.COMPS:SHP:1,2015-04-01T14:18:00Z,30.0600,-84.2910,-0.193,1111122 
COMPS,ioos:station:USF.COMPS:SHP:1,2015-04-01T14:24:00Z,30.0600,-84.2910,-0.17,1111122 
COMPS,ioos:station:USF.COMPS:SHP:1,2015-04-01T14:30:00Z,30.0600,-84.2910,-0.148,1111122 
COMPS,ioos:station:USF.COMPS:SHP:1,2015-04-01T14:36:00Z,30.0600,-84.2910,-0.132,1111122 
COMPS,ioos:station:USF.COMPS:SHP:1,2015-04-01T14:42:00Z,30.0600,-84.2910,-0.114,1111122 
COMPS,ioos:station:USF.COMPS:SHP:1,2015-04-01T14:48:00Z,30.0600,-84.2910,-0.09,1111122 
COMPS,ioos:station:USF.COMPS:SHP:1,2015-04-01T14:54:00Z,30.0600,-84.2910,-0.067,1111122 
COMPS,ioos:station:USF.COMPS:SHP:1,2015-04-01T15:00:00Z,30.0600,-84.2910,-0.046,1111122 
COMPS,ioos:station:USF.COMPS:SHP:1,2015-04-01T15:06:00Z,30.0600,-84.2910,-0.024,1111122 
COMPS,ioos:station:USF.COMPS:SHP:1,2015-04-01T15:12:00Z,30.0600,-84.2910,0.0,1114422 
COMPS,ioos:station:USF.COMPS:SHP:1,2015-04-01T15:18:00Z,30.0600,-84.2910,0.025,1111122 
COMPS,ioos:station:USF.COMPS:SHP:1,2015-04-01T15:24:00Z,30.0600,-84.2910,0.046,1111122 
COMPS,ioos:station:USF.COMPS:SHP:1,2015-04-01T15:30:00Z,30.0600,-84.2910,0.066,1111122 
COMPS,ioos:station:USF.COMPS:SHP:1,2015-04-01T15:36:00Z,30.0600,-84.2910,0.085,1111122 
COMPS,ioos:station:USF.COMPS:SHP:1,2015-04-01T15:42:00Z,30.0600,-84.2910,0.108,1111122 
COMPS,ioos:station:USF.COMPS:SHP:1,2015-04-01T15:48:00Z,30.0600,-84.2910,0.135,1111122 
COMPS,ioos:station:USF.COMPS:SHP:1,2015-04-01T15:54:00Z,30.0600,-84.2910,0.155,1111122 
COMPS,ioos:station:USF.COMPS:SHP:1,2015-04-01T16:00:00Z,30.0600,-84.2910,0.172,1111122 
COMPS,ioos:station:USF.COMPS:SHP:1,2015-04-01T16:06:00Z,30.0600,-84.2910,0.191,1111122 
COMPS,ioos:station:USF.COMPS:SHP:1,2015-04-01T16:12:00Z,30.0600,-84.2910,0.217,1111122 
COMPS,ioos:station:USF.COMPS:SHP:1,2015-04-01T16:18:00Z,30.0600,-84.2910,0.24,1111122 
COMPS,ioos:station:USF.COMPS:SHP:1,2015-04-01T16:24:00Z,30.0600,-84.2910,0.258,1111122 
COMPS,ioos:station:USF.COMPS:SHP:1,2015-04-01T16:30:00Z,30.0600,-84.2910,0.273,1111122 
COMPS,ioos:station:USF.COMPS:SHP:1,2015-04-01T16:36:00Z,30.0600,-84.2910,0.291,1111122 
COMPS,ioos:station:USF.COMPS:SHP:1,2015-04-01T16:42:00Z,30.0600,-84.2910,0.311,1111122 
COMPS,ioos:station:USF.COMPS:SHP:1,2015-04-01T16:48:00Z,30.0600,-84.2910,0.327,1111122 
COMPS,ioos:station:USF.COMPS:SHP:1,2015-04-01T16:54:00Z,30.0600,-84.2910,0.344,1111122 
COMPS,ioos:station:USF.COMPS:SHP:1,2015-04-01T17:00:00Z,30.0600,-84.2910,0.363,1111122 
COMPS,ioos:station:USF.COMPS:SHP:1,2015-04-01T17:06:00Z,30.0600,-84.2910,0.375,1111122 
COMPS,ioos:station:USF.COMPS:SHP:1,2015-04-01T17:12:00Z,30.0600,-84.2910,0.392,1111122 
COMPS,ioos:station:USF.COMPS:SHP:1,2015-04-01T17:18:00Z,30.0600,-84.2910,0.41,1111122 
COMPS,ioos:station:USF.COMPS:SHP:1,2015-04-01T17:24:00Z,30.0600,-84.2910,0.422,1111122 
COMPS,ioos:station:USF.COMPS:SHP:1,2015-04-01T17:30:00Z,30.0600,-84.2910,0.433,1111122 
COMPS,ioos:station:USF.COMPS:SHP:1,2015-04-01T17:36:00Z,30.0600,-84.2910,0.445,1111122 
COMPS,ioos:station:USF.COMPS:SHP:1,2015-04-01T17:42:00Z,30.0600,-84.2910,0.456,1111122 
COMPS,ioos:station:USF.COMPS:SHP:1,2015-04-01T17:48:00Z,30.0600,-84.2910,0.461,1111122 
COMPS,ioos:station:USF.COMPS:SHP:1,2015-04-01T17:54:00Z,30.0600,-84.2910,0.467,1111122 
COMPS,ioos:station:USF.COMPS:SHP:1,2015-04-01T18:00:00Z,30.0600,-84.2910,0.482,1111122 
COMPS,ioos:station:USF.COMPS:SHP:1,2015-04-01T18:06:00Z,30.0600,-84.2910,0.484,1111122 
COMPS,ioos:station:USF.COMPS:SHP:1,2015-04-01T18:12:00Z,30.0600,-84.2910,0.482,1111122 
COMPS,ioos:station:USF.COMPS:SHP:1,2015-04-01T18:18:00Z,30.0600,-84.2910,0.484,1111122 
COMPS,ioos:station:USF.COMPS:SHP:1,2015-04-01T18:24:00Z,30.0600,-84.2910,0.484,1111122 
COMPS,ioos:station:USF.COMPS:SHP:1,2015-04-01T18:30:00Z,30.0600,-84.2910,0.475,1111122 
COMPS,ioos:station:USF.COMPS:SHP:1,2015-04-01T18:36:00Z,30.0600,-84.2910,0.478,1111122 
COMPS,ioos:station:USF.COMPS:SHP:1,2015-04-01T18:42:00Z,30.0600,-84.2910,0.479,1111122 
COMPS,ioos:station:USF.COMPS:SHP:1,2015-04-01T18:48:00Z,30.0600,-84.2910,0.476,1111122 
COMPS,ioos:station:USF.COMPS:SHP:1,2015-04-01T18:54:00Z,30.0600,-84.2910,0.466,1111122 
COMPS,ioos:station:USF.COMPS:SHP:1,2015-04-01T19:00:00Z,30.0600,-84.2910,0.456,1111122 
COMPS,ioos:station:USF.COMPS:SHP:1,2015-04-01T19:06:00Z,30.0600,-84.2910,0.452,1111122 
COMPS,ioos:station:USF.COMPS:SHP:1,2015-04-01T19:12:00Z,30.0600,-84.2910,0.442,1111122 
COMPS,ioos:station:USF.COMPS:SHP:1,2015-04-01T19:18:00Z,30.0600,-84.2910,0.435,1111122 
COMPS,ioos:station:USF.COMPS:SHP:1,2015-04-01T19:24:00Z,30.0600,-84.2910,0.423,1111122 
COMPS,ioos:station:USF.COMPS:SHP:1,2015-04-01T19:30:00Z,30.0600,-84.2910,0.403,1111122 
COMPS,ioos:station:USF.COMPS:SHP:1,2015-04-01T19:36:00Z,30.0600,-84.2910,0.385,1111122 
COMPS,ioos:station:USF.COMPS:SHP:1,2015-04-01T19:42:00Z,30.0600,-84.2910,0.377,1111122 
COMPS,ioos:station:USF.COMPS:SHP:1,2015-04-01T19:48:00Z,30.0600,-84.2910,0.361,1111122 
COMPS,ioos:station:USF.COMPS:SHP:1,2015-04-01T19:54:00Z,30.0600,-84.2910,0.336,1111122 
COMPS,ioos:station:USF.COMPS:SHP:1,2015-04-01T20:00:00Z,30.0600,-84.2910,0.317,1111122 
COMPS,ioos:station:USF.COMPS:SHP:1,2015-04-01T20:06:00Z,30.0600,-84.2910,0.299,1111122 
COMPS,ioos:station:USF.COMPS:SHP:1,2015-04-01T20:12:00Z,30.0600,-84.2910,0.279,1111122 
COMPS,ioos:station:USF.COMPS:SHP:1,2015-04-01T20:18:00Z,30.0600,-84.2910,0.263,1111122 
COMPS,ioos:station:USF.COMPS:SHP:1,2015-04-01T20:24:00Z,30.0600,-84.2910,0.243,1111122 
COMPS,ioos:station:USF.COMPS:SHP:1,2015-04-01T20:30:00Z,30.0600,-84.2910,0.224,1111122 
COMPS,ioos:station:USF.COMPS:SHP:1,2015-04-01T20:36:00Z,30.0600,-84.2910,0.207,1111122 
COMPS,ioos:station:USF.COMPS:SHP:1,2015-04-01T20:42:00Z,30.0600,-84.2910,0.184,1111122 
COMPS,ioos:station:USF.COMPS:SHP:1,2015-04-01T20:48:00Z,30.0600,-84.2910,0.157,1111122 
COMPS,ioos:station:USF.COMPS:SHP:1,2015-04-01T20:54:00Z,30.0600,-84.2910,0.132,1111122 
COMPS,ioos:station:USF.COMPS:SHP:1,2015-04-01T21:00:00Z,30.0600,-84.2910,0.106,1111122 
COMPS,ioos:station:USF.COMPS:SHP:1,2015-04-01T21:06:00Z,30.0600,-84.2910,0.086,1111122 
COMPS,ioos:station:USF.COMPS:SHP:1,2015-04-01T21:12:00Z,30.0600,-84.2910,0.069,1111122 
COMPS,ioos:station:USF.COMPS:SHP:1,2015-04-01T21:18:00Z,30.0600,-84.2910,0.045,1111122 
COMPS,ioos:station:USF.COMPS:SHP:1,2015-04-01T21:24:00Z,30.0600,-84.2910,0.02,1111122 
COMPS,ioos:station:USF.COMPS:SHP:1,2015-04-01T21:30:00Z,30.0600,-84.2910,-0.003,1111122 
COMPS,ioos:station:USF.COMPS:SHP:1,2015-04-01T21:36:00Z,30.0600,-84.2910,-0.021,1111122 
COMPS,ioos:station:USF.COMPS:SHP:1,2015-04-01T21:42:00Z,30.0600,-84.2910,-0.051,1111122 
COMPS,ioos:station:USF.COMPS:SHP:1,2015-04-01T21:48:00Z,30.0600,-84.2910,-0.081,1111122 
COMPS,ioos:station:USF.COMPS:SHP:1,2015-04-01T21:54:00Z,30.0600,-84.2910,-0.099,1111122 
COMPS,ioos:station:USF.COMPS:SHP:1,2015-04-01T22:00:00Z,30.0600,-84.2910,-0.114,1111122 
COMPS,ioos:station:USF.COMPS:SHP:1,2015-04-01T22:06:00Z,30.0600,-84.2910,-0.127,1111122 
COMPS,ioos:station:USF.COMPS:SHP:1,2015-04-01T22:12:00Z,30.0600,-84.2910,-0.142,1111122 
COMPS,ioos:station:USF.COMPS:SHP:1,2015-04-01T22:18:00Z,30.0600,-84.2910,-0.161,1111122 
COMPS,ioos:station:USF.COMPS:SHP:1,2015-04-01T22:24:00Z,30.0600,-84.2910,-0.185,1111122 
COMPS,ioos:station:USF.COMPS:SHP:1,2015-04-01T22:30:00Z,30.0600,-84.2910,-0.202,1111122 
COMPS,ioos:station:USF.COMPS:SHP:1,2015-04-01T22:36:00Z,30.0600,-84.2910,-0.22,1111122 
COMPS,ioos:station:USF.COMPS:SHP:1,2015-04-01T22:42:00Z,30.0600,-84.2910,-0.242,1111122 
COMPS,ioos:station:USF.COMPS:SHP:1,2015-04-01T22:48:00Z,30.0600,-84.2910,-0.261,1111122 
COMPS,ioos:station:USF.COMPS:SHP:1,2015-04-01T22:54:00Z,30.0600,-84.2910,-0.274,1111122 
COMPS,ioos:station:USF.COMPS:SHP:1,2015-04-01T23:00:00Z,30.0600,-84.2910,-0.283,1111122 
COMPS,ioos:station:USF.COMPS:SHP:1,2015-04-01T23:06:00Z,30.0600,-84.2910,-0.3,1111122 
COMPS,ioos:station:USF.COMPS:SHP:1,2015-04-01T23:12:00Z,30.0600,-84.2910,-0.317,1111122 
COMPS,ioos:station:USF.COMPS:SHP:1,2015-04-01T23:18:00Z,30.0600,-84.2910,-0.33,1111122 
COMPS,ioos:station:USF.COMPS:SHP:1,2015-04-01T23:24:00Z,30.0600,-84.2910,-0.341,1111122 
COMPS,ioos:station:USF.COMPS:SHP:1,2015-04-01T23:30:00Z,30.0600,-84.2910,-0.351,1111122 
COMPS,ioos:station:USF.COMPS:SHP:1,2015-04-01T23:36:00Z,30.0600,-84.2910,-0.36,1111122 
COMPS,ioos:station:USF.COMPS:SHP:1,2015-04-01T23:42:00Z,30.0600,-84.2910,-0.366,1111122 
COMPS,ioos:station:USF.COMPS:SHP:1,2015-04-01T23:48:00Z,30.0600,-84.2910,-0.374,1111122 
COMPS,ioos:station:USF.COMPS:SHP:1,2015-04-01T23:54:00Z,30.0600,-84.2910,-0.382,1111122 
COMPS,ioos:station:USF.COMPS:SHP:1,2015-04-02T00:00:00Z,30.0600,-84.2910,-0.384,1111122 
COMPS,ioos:station:USF.COMPS:SHP:1,2015-04-02T00:06:00Z,30.0600,-84.2910,-0.382,1111122 
COMPS,ioos:station:USF.COMPS:SHP:1,2015-04-02T00:12:00Z,30.0600,-84.2910,-0.382,1111122 
COMPS,ioos:station:USF.COMPS:SHP:1,2015-04-02T00:18:00Z,30.0600,-84.2910,-0.383,1111122 
COMPS,ioos:station:USF.COMPS:SHP:1,2015-04-02T00:24:00Z,30.0600,-84.2910,-0.387,1111122 
COMPS,ioos:station:USF.COMPS:SHP:1,2015-04-02T00:30:00Z,30.0600,-84.2910,-0.391,1111122 
COMPS,ioos:station:USF.COMPS:SHP:1,2015-04-02T00:36:00Z,30.0600,-84.2910,-0.391,1111122 
COMPS,ioos:station:USF.COMPS:SHP:1,2015-04-02T00:42:00Z,30.0600,-84.2910,-0.39,1111122 
COMPS,ioos:station:USF.COMPS:SHP:1,2015-04-02T00:48:00Z,30.0600,-84.2910,-0.39,1111122 
COMPS,ioos:station:USF.COMPS:SHP:1,2015-04-02T00:54:00Z,30.0600,-84.2910,-0.384,1111122 
COMPS,ioos:station:USF.COMPS:SHP:1,2015-04-02T01:00:00Z,30.0600,-84.2910,-0.373,1111122 
COMPS,ioos:station:USF.COMPS:SHP:1,2015-04-02T01:06:00Z,30.0600,-84.2910,-0.366,1111122 
COMPS,ioos:station:USF.COMPS:SHP:1,2015-04-02T01:12:00Z,30.0600,-84.2910,-0.365,1111122 
COMPS,ioos:station:USF.COMPS:SHP:1,2015-04-02T01:18:00Z,30.0600,-84.2910,-0.361,1111122 
COMPS,ioos:station:USF.COMPS:SHP:1,2015-04-02T01:24:00Z,30.0600,-84.2910,-0.353,1111122 
COMPS,ioos:station:USF.COMPS:SHP:1,2015-04-02T01:30:00Z,30.0600,-84.2910,-0.341,1111122 
COMPS,ioos:station:USF.COMPS:SHP:1,2015-04-02T01:36:00Z,30.0600,-84.2910,-0.328,1111122 
COMPS,ioos:station:USF.COMPS:SHP:1,2015-04-02T01:42:00Z,30.0600,-84.2910,-0.313,1111122 
COMPS,ioos:station:USF.COMPS:SHP:1,2015-04-02T01:48:00Z,30.0600,-84.2910,-0.298,1111122 
COMPS,ioos:station:USF.COMPS:SHP:1,2015-04-02T01:54:00Z,30.0600,-84.2910,-0.285,1111122 
COMPS,ioos:station:USF.COMPS:SHP:1,2015-04-02T02:00:00Z,30.0600,-84.2910,-0.275,1111122 
COMPS,ioos:station:USF.COMPS:SHP:1,2015-04-02T02:06:00Z,30.0600,-84.2910,-0.266,1111122 
COMPS,ioos:station:USF.COMPS:SHP:1,2015-04-02T02:12:00Z,30.0600,-84.2910,-0.253,1111122 
COMPS,ioos:station:USF.COMPS:SHP:1,2015-04-02T02:18:00Z,30.0600,-84.2910,-0.237,1111122 
COMPS,ioos:station:USF.COMPS:SHP:1,2015-04-02T02:24:00Z,30.0600,-84.2910,-0.221,1111122 
COMPS,ioos:station:USF.COMPS:SHP:1,2015-04-02T02:30:00Z,30.0600,-84.2910,-0.205,1111122 
COMPS,ioos:station:USF.COMPS:SHP:1,2015-04-02T02:36:00Z,30.0600,-84.2910,-0.189,1111122 
COMPS,ioos:station:USF.COMPS:SHP:1,2015-04-02T02:42:00Z,30.0600,-84.2910,-0.17,1111122 
COMPS,ioos:station:USF.COMPS:SHP:1,2015-04-02T02:48:00Z,30.0600,-84.2910,-0.152,1111122 
COMPS,ioos:station:USF.COMPS:SHP:1,2015-04-02T02:54:00Z,30.0600,-84.2910,-0.133,1111122 